Wind_Speed
7 8 8 2 2 4 4 6 9 12 10 5 8 14 14 15 16 7 24 25 31 33 33 31 32 30 29 29 28 26 23 20 18 16 14 15 14 12 12 12 12 13 14 13 12 12 13 13 13
13 11 5 3 1 4 7 9 6 6 1 8 11 7 8 13 6 18 26 31 33 30 31 31 29 29 28 26 25 23 20 18 16 14 14 14 13 12 13 13 12 13 13 13 13 12 14 14 13
2 8 7 1 2 7 6 9 7 3 2 5 11 12 7 8 23 28 32 33 32 29 30 29 27 27 25 24 23 21 19 17 15 13 14 13 13 12 13 13 13 13 13 13 13 14 14 13 13
10 5 5 3 1 6 10 8 4 4 5 3 6 10 16 25 25 30 34 31 30 31 30 27 26 25 23 23 22 20 18 16 14 13 12 12 12 11 12 12 12 11 11 11 12 12 13 13 13
7 13 4 1 3 5 9 8 6 7 2 8 13 18 22 24 24 28 29 28 30 29 28 27 25 24 23 23 21 19 17 15 14 12 11 10 11 11 11 11 11 10 10 10 11 11 11 12 13
8 13 9 7 8 7 13 10 8 8 7 14 13 21 22 22 22 26 28 29 27 26 25 24 24 23 22 22 20 18 16 15 13 11 10 10 10 10 11 10 10 9 8 9 10 9 9 11 12
8 2 5 5 10 13 14 12 5 9 7 10 11 18 22 25 24 24 27 26 26 25 23 22 22 22 22 21 19 18 16 14 12 10 9 10 9 9 10 9 9 10 9 8 8 8 7 9 10
9 10 6 8 16 19 15 11 9 7 12 11 13 6 14 24 24 24 24 25 24 23 22 20 20 21 21 20 18 17 15 13 11 9 9 9 8 8 7 7 7 7 7 6 7 6 6 7 7
9 10 6 5 20 18 17 15 14 5 2 9 8 6 12 21 24 24 26 26 25 24 22 21 20 20 20 19 18 16 14 12 10 8 7 7 7 6 5 5 3 4 5 5 4 5 5 7 5
11 10 3 3 10 16 16 16 3 7 6 4 9 10 17 20 22 21 22 23 24 24 24 22 20 19 19 18 17 15 13 10 9 8 7 6 6 4 4 3 3 3 4 4 5 2 2 4 4
12 8 1 8 12 17 17 21 11 5 2 5 5 1 13 20 20 18 17 17 17 21 22 21 20 19 18 17 16 14 12 10 9 7 6 5 4 3 4 3 1 2 3 1 1 3 7 7 4
14 12 4 2 9 14 15 18 18 7 3 6 5 3 3 18 20 20 19 20 21 20 19 20 20 19 18 18 16 14 12 10 9 8 7 5 4 3 3 2 1 1 2 1 2 3 5 8 9
19 15 10 11 11 15 16 19 13 7 9 4 2 2 2 10 20 18 18 19 19 20 20 19 19 19 18 17 15 14 13 12 11 9 8 6 4 2 3 2 1 3 1 2 3 5 5 6 9
24 20 17 5 10 11 20 18 21 15 14 8 4 2 5 10 21 25 24 20 19 20 20 20 19 19 18 16 15 15 14 14 11 9 8 8 6 4 2 1 2 3 5 6 3 3 5 6 7
23 25 21 18 10 16 21 29 28 17 19 15 6 3 6 10 20 24 23 21 20 18 19 19 19 20 17 15 15 14 12 11 9 9 6 5 6 3 1 3 5 6 6 7 6 6 6 6 8
27 27 26 18 15 18 16 33 33 25 24 21 14 8 7 12 15 20 22 21 19 19 18 18 19 18 16 14 13 13 10 8 7 7 7 6 6 4 4 4 7 8 8 7 6 7 8 9 9
27 27 29 20 18 17 23 30 37 31 26 23 18 14 7 14 17 20 22 22 20 18 17 18 20 18 15 14 14 12 11 8 6 7 6 7 9 7 7 5 6 7 7 6 6 7 8 8 9
29 26 31 29 21 10 28 32 36 34 28 23 17 19 9 14 15 18 23 23 21 19 16 16 19 18 16 16 16 13 10 10 8 6 6 7 10 8 7 6 6 4 6 6 4 7 9 10 9
31 22 31 31 15 7 18 38 37 39 29 25 25 23 16 5 13 17 21 23 23 21 20 19 20 20 18 16 14 11 7 7 7 8 9 10 12 10 8 7 7 3 1 6 9 12 17 18 15
31 30 30 35 27 16 13 36 38 39 27 20 24 24 19 11 14 19 21 24 24 22 21 21 20 19 18 17 12 11 10 11 12 13 12 12 13 11 9 8 3 6 9 11 14 17 19 20 18
36 35 35 36 19 16 17 22 38 39 34 28 29 24 19 17 11 11 24 24 22 22 21 20 18 18 18 17 15 14 14 14 14 13 12 13 15 12 8 7 10 11 13 14 14 16 18 21 22
39 41 34 34 22 15 14 9 36 40 42 34 34 30 28 28 23 18 13 24 27 27 24 23 22 21 19 19 18 16 15 15 12 12 12 15 13 8 9 12 13 13 14 12 12 12 14 21 25
42 39 36 29 20 25 29 16 26 42 45 37 31 33 30 31 29 21 20 14 11 23 25 26 24 23 22 22 21 19 18 17 17 16 13 11 11 12 14 14 15 15 13 11 11 8 9 14 21
38 29 29 28 25 19 38 21 29 43 42 32 31 33 33 32 32 28 20 15 16 13 18 27 28 25 25 24 23 21 19 18 19 16 13 10 11 14 15 16 17 14 11 9 7 5 4 8 16
29 30 10 7 9 11 34 27 34 22 34 35 38 32 33 34 34 29 25 23 18 21 17 20 25 27 26 28 27 24 21 20 19 18 14 12 15 17 19 18 16 13 11 8 7 6 2 6 11
42 38 15 7 3 8 24 22 42 42 32 25 37 34 33 34 33 27 31 24 21 19 18 17 21 22 22 20 25 25 23 22 20 19 15 14 17 19 20 19 18 15 12 9 7 7 6 7 11
34 43 41 28 12 4 17 41 52 44 28 31 36 37 33 36 36 30 27 31 22 23 21 17 18 19 19 19 18 26 25 24 22 20 18 18 21 23 23 21 19 17 13 10 9 9 10 11 12
41 33 27 30 11 12 8 26 23 36 46 33 29 37 40 35 37 33 25 26 28 25 22 20 18 18 18 18 19 21 24 25 24 22 20 22 26 26 24 21 18 16 14 12 11 11 13 14 16
47 45 35 33 31 7 3 22 36 29 27 29 33 24 27 31 38 37 37 28 28 26 26 23 23 21 22 22 20 20 22 27 27 24 21 26 28 27 23 22 19 17 15 15 14 15 15 14 18
44 47 45 25 26 38 33 23 8 25 47 31 28 26 28 30 40 43 37 32 30 27 32 29 24 24 25 25 24 24 21 29 29 26 24 28 30 28 26 23 21 19 17 16 15 16 17 17 18
Wind_Direction
8 342 6 341 21 84 95 135 133 147 148 116 139 128 144 159 142 157 148 146 142 137 138 137 135 136 137 141 139 135 127 120 118 109 106 115 113 108 100 90 80 78 77 78 77 78 78 77 71
12 15 6 322 116 107 119 131 128 173 139 144 165 163 168 158 204 161 145 143 140 137 137 137 137 138 140 141 137 132 128 126 120 114 116 117 111 106 97 90 85 81 79 77 76 76 76 77 76
38 24 29 317 133 150 164 124 126 145 155 152 181 177 170 170 132 142 141 140 142 140 139 140 140 141 143 140 137 138 136 131 126 123 119 112 110 104 98 96 94 90 85 83 79 77 78 75 73
327 263 344 335 294 162 164 132 107 132 179 175 171 158 134 131 138 143 141 140 144 144 142 143 144 146 146 145 145 145 137 136 131 122 116 112 105 98 99 104 100 92 87 84 76 73 76 72 66
77 295 321 243 257 213 184 150 117 43 77 129 149 142 136 139 142 145 147 144 145 146 146 147 147 147 148 148 149 141 140 134 127 125 118 109 100 100 102 100 97 96 93 88 79 71 67 68 64
15 137 139 353 267 237 199 167 132 57 119 123 151 147 139 145 148 149 146 145 148 150 148 148 147 149 148 149 146 141 138 134 132 125 113 102 101 98 94 90 89 91 86 84 78 63 54 53 53
97 40 246 287 193 192 177 163 89 58 102 147 170 149 145 151 155 153 151 152 155 156 153 151 150 149 150 146 143 140 140 137 132 120 113 109 111 102 98 92 87 88 84 80 80 66 46 53 54
239 304 285 182 188 190 183 155 134 57 88 121 161 182 172 154 157 162 161 162 161 158 155 153 151 150 145 144 145 143 143 141 131 125 120 119 109 108 101 91 87 90 77 65 64 63 49 52 42
264 277 302 216 189 177 179 165 153 141 55 131 143 200 186 160 165 169 169 168 165 162 159 157 154 149 146 150 149 151 149 144 136 131 123 123 118 111 98 95 66 51 58 57 54 66 43 32 26
233 269 122 110 174 198 186 187 145 162 166 175 177 161 191 182 175 177 175 169 165 164 161 159 156 154 156 157 157 160 157 152 151 150 138 120 138 137 140 111 70 49 49 65 61 70 358 7 6
227 212 22 31 221 220 211 195 231 214 178 58 65 340 198 194 180 178 178 172 167 165 166 160 160 163 166 166 169 170 169 169 172 179 180 172 198 192 200 191 121 72 34 13 101 342 321 338 353
226 179 203 325 271 225 204 207 211 234 4 71 50 38 182 198 188 185 175 173 177 171 170 168 168 173 176 180 181 183 187 190 193 198 211 200 195 178 195 177 105 19 29 345 273 320 325 327 335
241 192 223 283 268 258 207 211 240 224 217 162 46 337 160 187 187 174 171 176 179 178 179 180 181 184 190 193 195 198 199 202 209 212 214 223 213 227 174 132 70 33 17 306 288 302 322 330 325
237 245 262 227 254 258 220 229 230 217 212 217 75 334 192 184 171 166 176 182 180 186 187 190 190 195 200 201 208 213 212 212 210 218 223 232 208 188 150 268 355 348 320 312 249 313 319 331 324
233 250 255 231 252 222 218 224 225 233 223 228 197 204 210 182 187 189 184 183 189 190 190 192 195 202 202 206 215 224 230 224 215 222 221 221 211 205 286 278 316 320 329 314 304 308 301 304 318
230 240 252 215 234 223 221 230 229 223 231 225 217 223 212 194 191 185 182 184 184 188 199 202 200 205 201 199 206 216 231 218 191 186 201 208 216 228 254 279 305 313 316 308 301 305 299 307 321
220 233 239 232 242 246 224 231 229 221 228 229 226 231 191 203 192 185 187 186 186 191 201 205 202 202 205 203 209 213 214 224 215 211 203 216 217 235 264 270 290 295 313 317 314 319 340 337 334
218 230 235 243 248 278 231 233 225 216 220 222 240 232 210 206 194 186 189 191 193 196 200 203 205 210 212 213 212 221 224 220 224 227 229 220 222 238 255 259 278 310 316 329 356 21 25 13 4
224 230 234 239 239 290 250 223 222 220 212 222 235 236 223 244 200 191 191 197 202 204 207 204 205 208 219 223 221 231 240 244 238 239 239 235 229 230 237 269 280 318 21 87 70 56 51 44 35
225 233 230 239 247 249 280 228 232 227 230 259 240 234 237 227 209 208 197 206 211 209 206 208 208 211 221 232 227 229 234 239 237 238 239 240 239 231 237 251 224 148 121 98 86 77 66 47 33
222 227 229 236 242 232 278 246 220 230 223 230 233 245 252 237 250 235 218 211 213 212 211 209 210 216 226 233 235 234 235 240 246 250 255 263 253 237 210 200 157 142 119 105 96 85 66 48 39
226 221 231 243 264 278 282 232 215 217 216 224 230 230 238 240 237 246 240 228 222 213 211 212 214 219 225 231 236 241 247 250 248 244 246 250 235 191 187 165 151 137 123 117 111 102 72 52 39
229 223 230 246 266 269 263 255 231 218 220 221 239 238 237 244 248 246 246 243 236 227 217 216 218 225 229 231 235 236 238 243 241 236 232 220 197 173 170 158 149 144 136 131 127 107 78 53 36
224 228 235 249 256 252 252 238 255 211 221 235 252 251 248 249 253 249 240 248 251 234 223 227 226 226 229 233 239 240 240 241 238 234 223 210 192 177 172 160 154 156 151 154 154 161 84 36 28
222 222 234 250 222 234 245 248 242 244 239 247 255 255 252 251 246 240 231 233 240 243 231 223 221 220 226 232 236 236 238 238 233 227 216 207 193 185 171 167 159 165 172 182 193 214 257 351 8
220 215 196 199 208 236 240 238 243 237 234 251 248 253 252 248 234 231 228 222 223 228 238 231 227 220 219 230 235 235 234 235 225 221 211 201 193 183 181 176 173 180 194 200 220 240 282 319 337
214 220 225 241 260 297 222 244 253 245 236 237 244 236 243 242 234 229 223 225 220 221 222 222 224 223 221 228 242 236 233 227 220 218 210 198 191 186 177 181 186 193 205 215 232 252 275 298 313
226 223 211 220 222 239 241 233 230 233 239 233 243 248 246 248 241 235 226 225 217 218 224 224 226 232 234 229 236 240 229 223 216 220 214 199 192 190 183 193 198 203 214 230 247 265 278 293 303
215 225 226 228 225 216 215 251 244 233 229 237 238 250 254 251 246 242 226 229 230 229 229 226 223 226 230 223 226 239 225 217 213 218 215 201 196 194 198 208 212 221 231 243 259 271 280 295 303
225 220 223 221 216 229 237 232 6 242 236 226 226 234 270 268 255 249 231 234 234 236 239 229 225 226 228 231 229 232 231 216 213 214 212 203 197 195 204 210 218 230 240 252 263 272 284 291 296
Height
3155 3152 3152 3150 3155 3152 3152 3152 3151 3150 3150 3152 3152 3153 3154 3154 3154 3160 3158 3161 3164 3166 3169 3173 3176 3178 3181 3185 3188 3189 3191 3193 3194 3196 3197 3199 3199 3199 3199 3200 3199 3198 3198 3199 3198 3198 3197 3197 3197
3155 3154 3154 3152 3153 3152 3152 3151 3151 3151 3151 3151 3154 3155 3155 3155 3154 3155 3159 3163 3167 3170 3172 3175 3179 3181 3183 3187 3189 3191 3194 3195 3196 3198 3200 3201 3201 3201 3201 3201 3201 3199 3200 3200 3200 3200 3199 3199 3198
3159 3156 3156 3154 3154 3153 3153 3152 3152 3152 3151 3152 3152 3155 3155 3155 3156 3159 3163 3165 3169 3173 3175 3178 3181 3183 3186 3189 3192 3194 3195 3197 3199 3201 3201 3202 3203 3203 3203 3202 3201 3201 3202 3202 3202 3201 3201 3200 3200
3161 3161 3160 3157 3157 3154 3153 3154 3154 3153 3152 3152 3153 3156 3157 3159 3161 3164 3166 3169 3172 3176 3178 3180 3182 3185 3189 3191 3194 3197 3198 3200 3201 3202 3203 3204 3204 3204 3204 3204 3204 3204 3204 3204 3204 3203 3203 3202 3202
3165 3163 3161 3159 3157 3157 3156 3158 3157 3155 3154 3153 3155 3157 3159 3162 3166 3168 3170 3172 3176 3178 3180 3183 3186 3188 3191 3194 3197 3198 3200 3202 3203 3204 3205 3206 3205 3206 3206 3206 3206 3206 3206 3206 3206 3205 3203 3203 3203
3161 3161 3162 3161 3158 3158 3158 3159 3159 3158 3157 3156 3158 3159 3162 3166 3169 3170 3173 3175 3178 3182 3182 3185 3187 3190 3193 3196 3198 3199 3202 3203 3204 3206 3207 3207 3207 3207 3208 3208 3208 3208 3208 3208 3207 3206 3205 3205 3205
3163 3163 3162 3163 3158 3158 3159 3160 3161 3160 3159 3159 3161 3161 3164 3166 3170 3173 3174 3177 3180 3183 3185 3187 3189 3191 3194 3196 3199 3201 3203 3205 3206 3208 3208 3209 3209 3209 3209 3209 3209 3209 3209 3208 3208 3207 3206 3206 3206
3161 3162 3161 3163 3157 3159 3161 3161 3163 3164 3162 3163 3165 3165 3165 3166 3170 3173 3176 3179 3181 3184 3186 3189 3191 3193 3195 3198 3201 3203 3205 3206 3208 3209 3210 3210 3211 3212 3212 3211 3211 3210 3210 3209 3209 3208 3208 3208 3207
3161 3160 3158 3160 3160 3160 3161 3161 3162 3165 3166 3165 3165 3166 3167 3167 3169 3173 3175 3177 3180 3183 3187 3190 3192 3194 3197 3200 3202 3204 3206 3208 3209 3210 3211 3212 3213 3213 3213 3213 3212 3211 3211 3209 3209 3209 3207 3208 3207
3159 3158 3157 3160 3159 3159 3160 3161 3162 3164 3164 3165 3165 3166 3167 3168 3170 3173 3175 3178 3180 3184 3187 3190 3192 3195 3198 3201 3204 3205 3207 3209 3210 3211 3211 3212 3213 3213 3213 3213 3212 3212 3212 3210 3209 3209 3208 3208 3207
3158 3156 3157 3159 3160 3160 3161 3162 3166 3164 3164 3166 3165 3165 3166 3169 3171 3174 3177 3180 3184 3186 3188 3190 3193 3197 3200 3202 3204 3206 3207 3209 3210 3211 3211 3212 3213 3214 3213 3213 3212 3213 3212 3211 3211 3210 3209 3207 3208
3156 3155 3156 3157 3158 3158 3160 3163 3164 3165 3166 3166 3166 3166 3167 3169 3171 3173 3177 3180 3183 3186 3189 3192 3194 3197 3200 3202 3204 3206 3207 3209 3211 3211 3211 3212 3213 3214 3214 3213 3213 3213 3212 3212 3211 3211 3210 3208 3207
3153 3154 3155 3160 3162 3162 3160 3160 3163 3164 3166 3166 3166 3167 3168 3170 3172 3174 3179 3182 3184 3186 3189 3192 3195 3198 3200 3202 3204 3206 3207 3208 3209 3210 3211 3212 3213 3214 3214 3213 3213 3213 3213 3212 3212 3212 3211 3209 3208
3152 3152 3153 3155 3161 3160 3161 3161 3162 3165 3164 3165 3167 3168 3169 3171 3171 3173 3176 3180 3183 3186 3189 3192 3195 3198 3199 3202 3204 3205 3206 3207 3208 3209 3210 3212 3213 3213 3212 3213 3213 3213 3213 3212 3212 3211 3210 3209 3208
3150 3150 3150 3152 3155 3159 3161 3160 3156 3162 3162 3164 3165 3168 3169 3170 3171 3173 3177 3180 3183 3186 3189 3191 3194 3197 3199 3201 3202 3204 3206 3206 3207 3208 3210 3211 3212 3212 3212 3212 3212 3212 3212 3211 3211 3210 3209 3208 3207
3146 3147 3147 3149 3154 3157 3158 3152 3154 3158 3160 3161 3164 3166 3168 3168 3171 3174 3177 3180 3182 3184 3187 3190 3193 3195 3198 3200 3201 3203 3205 3206 3207 3208 3209 3210 3211 3211 3211 3211 3212 3212 3211 3211 3210 3209 3207 3206 3205
3141 3142 3144 3146 3149 3152 3152 3149 3150 3154 3159 3159 3161 3164 3166 3168 3169 3172 3175 3178 3180 3184 3186 3188 3191 3194 3197 3198 3200 3201 3203 3204 3206 3207 3208 3209 3210 3209 3210 3211 3211 3211 3211 3210 3209 3208 3207 3205 3204
3134 3139 3142 3142 3147 3147 3145 3144 3147 3152 3154 3156 3158 3161 3163 3166 3168 3171 3173 3176 3179 3182 3185 3187 3190 3193 3195 3197 3198 3199 3200 3202 3204 3205 3206 3207 3208 3208 3209 3210 3210 3210 3210 3209 3209 3208 3206 3205 3203
3133 3135 3138 3139 3142 3143 3141 3143 3142 3146 3151 3153 3155 3157 3159 3162 3166 3169 3172 3175 3177 3179 3182 3185 3188 3191 3192 3194 3195 3196 3198 3199 3200 3202 3203 3205 3206 3207 3208 3209 3209 3209 3209 3209 3209 3208 3207 3205 3203
3128 3131 3131 3134 3138 3142 3141 3141 3141 3143 3143 3146 3148 3150 3154 3159 3162 3165 3168 3171 3174 3177 3179 3182 3185 3188 3190 3192 3193 3194 3195 3196 3198 3199 3201 3202 3204 3204 3206 3207 3208 3209 3210 3210 3210 3209 3208 3206 3203
3121 3124 3128 3131 3135 3138 3137 3136 3136 3140 3145 3147 3149 3151 3153 3155 3157 3162 3164 3166 3171 3174 3177 3180 3183 3185 3187 3189 3190 3191 3191 3193 3195 3197 3198 3200 3201 3202 3204 3205 3207 3208 3210 3211 3210 3209 3208 3207 3204
3115 3120 3126 3127 3131 3132 3133 3133 3131 3135 3137 3141 3143 3146 3148 3152 3156 3158 3161 3163 3166 3169 3173 3176 3179 3181 3184 3185 3187 3189 3190 3192 3194 3195 3196 3197 3198 3200 3202 3204 3206 3208 3210 3210 3210 3209 3209 3207 3205
3109 3118 3122 3125 3127 3129 3129 3132 3126 3129 3132 3134 3136 3140 3144 3146 3151 3155 3157 3159 3162 3166 3169 3172 3175 3177 3180 3182 3184 3186 3187 3189 3191 3192 3193 3195 3197 3198 3201 3203 3205 3208 3209 3209 3209 3209 3209 3208 3206
3111 3116 3120 3122 3123 3119 3118 3126 3119 3119 3121 3127 3131 3134 3138 3142 3145 3150 3153 3155 3158 3162 3164 3167 3170 3172 3175 3178 3181 3183 3185 3186 3187 3188 3191 3193 3195 3197 3199 3202 3204 3206 3207 3208 3209 3209 3209 3208 3207
3105 3112 3116 3116 3114 3105 3112 3114 3110 3115 3119 3122 3124 3126 3131 3136 3140 3144 3148 3149 3152 3155 3159 3161 3163 3166 3170 3173 3176 3179 3181 3183 3184 3185 3188 3190 3193 3195 3198 3201 3203 3205 3206 3207 3208 3208 3208 3208 3208
3094 3099 3098 3108 3106 3102 3107 3094 3092 3108 3116 3116 3119 3120 3125 3130 3134 3138 3142 3144 3147 3151 3154 3158 3159 3162 3164 3168 3171 3174 3177 3179 3181 3183 3185 3188 3191 3194 3196 3199 3201 3202 3204 3205 3206 3206 3206 3206 3206
3088 3089 3096 3098 3099 3100 3093 3090 3094 3102 3108 3112 3114 3118 3121 3124 3128 3132 3134 3138 3142 3146 3149 3153 3156 3158 3160 3163 3167 3169 3173 3175 3177 3180 3183 3184 3188 3191 3193 3196 3198 3199 3201 3202 3203 3204 3204 3204 3204
3078 3087 3092 3092 3096 3096 3085 3081 3081 3090 3098 3104 3107 3111 3115 3117 3121 3125 3129 3132 3136 3141 3145 3149 3153 3155 3158 3160 3163 3165 3168 3171 3174 3176 3179 3182 3185 3188 3190 3193 3195 3196 3198 3199 3201 3201 3202 3201 3200
3069 3071 3077 3080 3082 3083 3085 3069 3079 3087 3092 3098 3102 3105 3107 3110 3112 3116 3122 3126 3131 3135 3139 3143 3148 3152 3155 3156 3159 3161 3163 3166 3168 3172 3175 3179 3181 3184 3187 3190 3192 3193 3194 3196 3198 3198 3198 3198 3197
3061 3063 3068 3070 3069 3067 3070 3065 3073 3076 3085 3092 3095 3099 3101 3103 3105 3108 3117 3121 3126 3128 3131 3137 3142 3146 3149 3154 3155 3157 3159 3161 3163 3167 3171 3175 3178 3181 3183 3186 3187 3189 3190 3191 3193 3194 3194 3194 3194